Year,Month,Day,Hour,Minute,Value (Times are PST for temperature in C)
2007,05,30,06,30,10.20
2007,05,30,06,31,10.30
2007,05,30,06,32,10.30
2007,05,30,06,33,10.30
2007,05,30,06,34,10.30
2007,05,30,06,35,10.30
2007,05,30,06,36,10.30
2007,05,30,06,37,10.30
2007,05,30,06,38,10.40
2007,05,30,06,39,10.40
2007,05,30,06,40,10.40
2007,05,30,06,41,10.40
2007,05,30,06,42,10.50
2007,05,30,06,43,10.50
2007,05,30,06,44,10.50
2007,05,30,06,45,10.50
2007,05,30,06,46,10.60
2007,05,30,06,47,10.60
2007,05,30,06,48,10.70
2007,05,30,06,49,10.70
2007,05,30,06,50,10.70
2007,05,30,06,51,10.80
2007,05,30,06,52,10.90
2007,05,30,06,53,11.00
2007,05,30,06,54,11.10
2007,05,30,06,55,11.20
2007,05,30,06,56,11.30
2007,05,30,06,57,11.40
2007,05,30,06,58,11.50
2007,05,30,06,59,11.70
2007,05,30,07,00,11.80
2007,05,30,07,01,11.90
2007,05,30,07,02,12.00
2007,05,30,07,03,12.10
2007,05,30,07,04,12.20
2007,05,30,07,05,12.30
2007,05,30,07,06,12.40
2007,05,30,07,07,12.60
2007,05,30,07,08,12.70
2007,05,30,07,09,12.80
2007,05,30,07,10,13.00
2007,05,30,07,11,13.10
2007,05,30,07,12,13.20
2007,05,30,07,13,13.40
2007,05,30,07,14,13.40
2007,05,30,07,15,13.50
2007,05,30,07,16,13.60
2007,05,30,07,17,13.60
2007,05,30,07,18,13.70
2007,05,30,07,19,13.70
2007,05,30,07,20,13.80
2007,05,30,07,21,13.80
2007,05,30,07,22,13.90
2007,05,30,07,23,13.90
2007,05,30,07,24,13.90
2007,05,30,07,25,14.00
2007,05,30,07,26,14.10
2007,05,30,07,27,14.10
2007,05,30,07,28,14.20
2007,05,30,07,29,14.30
2007,05,30,07,30,14.30
2007,05,30,07,31,14.40
2007,05,30,07,32,14.40
2007,05,30,07,33,14.50
2007,05,30,07,34,14.60
2007,05,30,07,35,14.70
2007,05,30,07,36,14.80
2007,05,30,07,37,14.80
2007,05,30,07,38,14.90
2007,05,30,07,39,15.00
2007,05,30,07,40,15.00
2007,05,30,07,41,15.00
2007,05,30,07,42,15.00
2007,05,30,07,43,15.00
2007,05,30,07,44,15.20
2007,05,30,07,45,15.20
2007,05,30,07,46,15.30
2007,05,30,07,47,15.40
2007,05,30,07,48,15.40
2007,05,30,07,49,15.50
2007,05,30,07,50,15.60
2007,05,30,07,51,15.60
2007,05,30,07,52,15.70
2007,05,30,07,53,15.70
2007,05,30,07,54,15.80
2007,05,30,07,55,15.80
2007,05,30,07,56,15.80
2007,05,30,07,57,15.80
2007,05,30,07,58,15.80
2007,05,30,07,59,15.80
2007,05,30,08,00,15.80
2007,05,30,08,01,15.80
2007,05,30,08,02,15.80
2007,05,30,08,03,15.70
2007,05,30,08,04,15.60
2007,05,30,08,05,15.60
2007,05,30,08,06,15.40
2007,05,30,08,07,15.40
2007,05,30,08,08,15.40
2007,05,30,08,09,15.40
2007,05,30,08,10,15.40
2007,05,30,08,11,15.50
2007,05,30,08,12,15.50
2007,05,30,08,13,15.50
2007,05,30,08,14,15.60
2007,05,30,08,15,15.60
2007,05,30,08,16,15.70
2007,05,30,08,17,15.80
2007,05,30,08,18,15.80
2007,05,30,08,19,15.80
2007,05,30,08,20,15.80
2007,05,30,08,21,15.90
2007,05,30,08,22,15.90
2007,05,30,08,23,16.00
2007,05,30,08,24,16.10
2007,05,30,08,25,16.10
2007,05,30,08,26,16.10
2007,05,30,08,27,16.10
2007,05,30,08,28,16.10
2007,05,30,08,29,16.20
2007,05,30,08,30,16.20
2007,05,30,08,31,16.20
2007,05,30,08,32,16.20
2007,05,30,08,33,16.20
2007,05,30,08,34,16.20
2007,05,30,08,35,16.20
2007,05,30,08,36,16.20
2007,05,30,08,37,16.20
2007,05,30,08,38,16.20
2007,05,30,08,39,16.20
2007,05,30,08,40,16.30
2007,05,30,08,41,16.30
2007,05,30,08,42,16.30
2007,05,30,08,43,16.40
2007,05,30,08,44,16.40
2007,05,30,08,45,16.50
2007,05,30,08,46,16.50
2007,05,30,08,47,16.60
2007,05,30,08,48,16.60
2007,05,30,08,49,16.70
2007,05,30,08,50,16.70
2007,05,30,08,51,16.80
2007,05,30,08,52,16.80
2007,05,30,08,53,16.80
2007,05,30,08,54,16.90
2007,05,30,08,55,17.00
2007,05,30,08,56,17.00
2007,05,30,08,57,17.10
2007,05,30,08,58,17.10
2007,05,30,08,59,17.20
2007,05,30,09,00,17.20
2007,05,30,09,01,17.20
2007,05,30,09,02,17.20
2007,05,30,09,03,17.20
2007,05,30,09,04,17.30
2007,05,30,09,05,17.30
2007,05,30,09,06,17.30
2007,05,30,09,07,17.40
2007,05,30,09,08,17.40
2007,05,30,09,09,17.30
2007,05,30,09,10,17.30
2007,05,30,09,11,17.40
2007,05,30,09,12,17.40
2007,05,30,09,13,17.40
2007,05,30,09,14,17.40
2007,05,30,09,15,17.60
2007,05,30,09,16,17.60
2007,05,30,09,17,17.60
2007,05,30,09,18,17.70
2007,05,30,09,19,17.70
2007,05,30,09,20,17.80
2007,05,30,09,21,17.80
2007,05,30,09,22,17.80
2007,05,30,09,23,17.90
2007,05,30,09,24,17.90
2007,05,30,09,25,17.90
2007,05,30,09,26,18.00
2007,05,30,09,27,18.10
2007,05,30,09,28,18.10
2007,05,30,09,29,18.20
2007,05,30,09,30,18.20
2007,05,30,09,31,18.20
2007,05,30,09,32,18.20
2007,05,30,09,33,18.20
2007,05,30,09,34,18.20
2007,05,30,09,35,18.20
2007,05,30,09,36,18.20
2007,05,30,09,37,18.30
2007,05,30,09,38,18.30
2007,05,30,09,39,18.30
2007,05,30,09,40,18.40
2007,05,30,09,41,18.40
2007,05,30,09,42,18.40
2007,05,30,09,43,18.40
2007,05,30,09,44,18.40
2007,05,30,09,45,18.40
2007,05,30,09,46,18.40
2007,05,30,09,47,18.40
2007,05,30,09,48,18.40
2007,05,30,09,49,18.50
2007,05,30,09,50,18.50
2007,05,30,09,51,18.60
2007,05,30,09,52,18.60
2007,05,30,09,53,18.70
2007,05,30,09,54,18.70
2007,05,30,09,55,18.80
2007,05,30,09,56,18.90
2007,05,30,09,57,18.90
2007,05,30,09,58,19.00
2007,05,30,09,59,19.10
2007,05,30,10,00,19.10
2007,05,30,10,01,19.20
2007,05,30,10,02,19.30
2007,05,30,10,03,19.30
2007,05,30,10,04,19.30
2007,05,30,10,05,19.30
2007,05,30,10,06,19.30
2007,05,30,10,07,19.30
2007,05,30,10,08,19.30
2007,05,30,10,09,19.40
2007,05,30,10,10,19.40
2007,05,30,10,11,19.40
2007,05,30,10,12,19.50
2007,05,30,10,13,19.60
2007,05,30,10,14,19.60
2007,05,30,10,15,19.60
2007,05,30,10,16,19.70
2007,05,30,10,17,19.70
2007,05,30,10,18,19.70
2007,05,30,10,19,19.80
2007,05,30,10,20,19.80
2007,05,30,10,21,19.80
2007,05,30,10,22,19.80
2007,05,30,10,23,19.90
2007,05,30,10,24,19.90
2007,05,30,10,25,19.90
2007,05,30,10,26,19.90
2007,05,30,10,27,20.00
2007,05,30,10,28,20.00
2007,05,30,10,29,20.00
2007,05,30,10,30,20.10
2007,05,30,10,31,20.00
2007,05,30,10,32,20.00
2007,05,30,10,33,19.90
2007,05,30,10,34,19.90
2007,05,30,10,35,19.90
2007,05,30,10,36,19.90
2007,05,30,10,37,20.00
2007,05,30,10,38,20.00
2007,05,30,10,39,20.10
2007,05,30,10,40,20.10
2007,05,30,10,41,20.10
2007,05,30,10,42,20.20
2007,05,30,10,43,20.20
2007,05,30,10,44,20.20
2007,05,30,10,45,20.20
2007,05,30,10,46,20.10
2007,05,30,10,47,20.20
2007,05,30,10,48,20.30
2007,05,30,10,49,20.30
2007,05,30,10,50,20.30
2007,05,30,10,51,20.30
2007,05,30,10,52,20.30
2007,05,30,10,53,20.20
2007,05,30,10,54,20.20
2007,05,30,10,55,20.20
2007,05,30,10,56,20.20
2007,05,30,10,57,20.10
2007,05,30,10,58,20.10
2007,05,30,10,59,20.10
2007,05,30,11,00,20.10
2007,05,30,11,01,20.10
2007,05,30,11,02,20.20
2007,05,30,11,03,20.20
2007,05,30,11,04,20.40
2007,05,30,11,05,20.50
2007,05,30,11,06,20.60
2007,05,30,11,07,20.60
2007,05,30,11,08,20.70
2007,05,30,11,09,20.80
2007,05,30,11,10,20.90
2007,05,30,11,11,20.90
2007,05,30,11,12,20.90
2007,05,30,11,13,20.90
2007,05,30,11,14,20.90
2007,05,30,11,15,20.90
2007,05,30,11,16,21.00
2007,05,30,11,17,21.10
2007,05,30,11,18,21.10
2007,05,30,11,19,21.20
2007,05,30,11,20,21.30
2007,05,30,11,21,21.20
2007,05,30,11,22,21.10
2007,05,30,11,23,21.10
2007,05,30,11,24,20.90
2007,05,30,11,25,20.90
2007,05,30,11,26,20.80
2007,05,30,11,27,20.80
2007,05,30,11,28,20.80
2007,05,30,11,29,20.80
2007,05,30,11,30,20.80
2007,05,30,11,31,20.80
2007,05,30,11,32,20.80
2007,05,30,11,33,20.80
2007,05,30,11,34,20.80
2007,05,30,11,35,20.80
2007,05,30,11,36,20.80
2007,05,30,11,37,20.80
2007,05,30,11,38,20.80
2007,05,30,11,39,20.80
2007,05,30,11,40,20.90
2007,05,30,11,41,21.00
2007,05,30,11,42,21.00
2007,05,30,11,43,21.10
2007,05,30,11,44,21.20
2007,05,30,11,45,21.30
2007,05,30,11,46,21.40
2007,05,30,11,47,21.40
2007,05,30,11,48,21.40
2007,05,30,11,49,21.50
2007,05,30,11,50,21.50
2007,05,30,11,51,21.50
2007,05,30,11,52,21.40
2007,05,30,11,53,21.40
2007,05,30,11,54,21.40
2007,05,30,11,55,21.40
2007,05,30,11,56,21.40
2007,05,30,11,57,21.40
2007,05,30,11,58,21.50
2007,05,30,11,59,21.70
2007,05,30,12,00,21.70
2007,05,30,12,01,21.70
2007,05,30,12,02,21.70
2007,05,30,12,03,21.70
2007,05,30,12,04,21.70
2007,05,30,12,05,21.70
2007,05,30,12,06,21.80
2007,05,30,12,07,21.90
2007,05,30,12,08,21.90
2007,05,30,12,09,22.00
2007,05,30,12,10,22.00
2007,05,30,12,11,22.10
2007,05,30,12,12,22.10
2007,05,30,12,13,22.10
2007,05,30,12,14,22.10
2007,05,30,12,15,22.20
2007,05,30,12,16,22.20
2007,05,30,12,17,22.20
2007,05,30,12,18,22.10
2007,05,30,12,19,22.10
2007,05,30,12,20,22.20
2007,05,30,12,21,22.20
2007,05,30,12,22,22.10
2007,05,30,12,23,22.10
2007,05,30,12,24,22.10
2007,05,30,12,25,22.10
2007,05,30,12,26,22.10
2007,05,30,12,27,22.20
2007,05,30,12,28,22.20
2007,05,30,12,29,22.20
2007,05,30,12,30,22.20
2007,05,30,12,31,22.20
2007,05,30,12,32,22.10
2007,05,30,12,33,22.10
2007,05,30,12,34,22.20
2007,05,30,12,35,22.20
2007,05,30,12,36,22.20
2007,05,30,12,37,22.30
2007,05,30,12,38,22.30
2007,05,30,12,39,22.30
2007,05,30,12,40,22.40
2007,05,30,12,41,22.40
2007,05,30,12,42,22.60
2007,05,30,12,43,22.60
2007,05,30,12,44,22.60
2007,05,30,12,45,22.60
2007,05,30,12,46,22.60
2007,05,30,12,47,22.60
2007,05,30,12,48,22.50
2007,05,30,12,49,22.50
2007,05,30,12,50,22.50
2007,05,30,12,51,22.70
2007,05,30,12,52,22.80
2007,05,30,12,53,22.80
2007,05,30,12,54,22.80
2007,05,30,12,55,22.90
2007,05,30,12,56,23.00
2007,05,30,12,57,23.10
2007,05,30,12,58,23.10
2007,05,30,12,59,23.20
2007,05,30,13,00,23.30
2007,05,30,13,01,23.30
2007,05,30,13,02,23.30
2007,05,30,13,03,23.40
2007,05,30,13,04,23.40
2007,05,30,13,05,23.50
2007,05,30,13,06,23.60
2007,05,30,13,07,23.70
2007,05,30,13,08,23.60
2007,05,30,13,09,23.60
2007,05,30,13,10,23.60
2007,05,30,13,11,23.70
2007,05,30,13,12,23.70
2007,05,30,13,13,23.80
2007,05,30,13,14,23.70
2007,05,30,13,15,23.70
2007,05,30,13,16,23.70
2007,05,30,13,17,23.70
2007,05,30,13,18,23.80
2007,05,30,13,19,23.80
2007,05,30,13,20,23.80
2007,05,30,13,21,23.80
2007,05,30,13,22,23.80
2007,05,30,13,23,23.80
2007,05,30,13,24,23.80
2007,05,30,13,25,23.90
2007,05,30,13,26,23.90
2007,05,30,13,27,24.00
2007,05,30,13,28,24.10
2007,05,30,13,29,24.10
2007,05,30,13,30,24.20
2007,05,30,13,31,24.30
2007,05,30,13,32,24.30
2007,05,30,13,33,24.20
2007,05,30,13,34,24.20
2007,05,30,13,35,24.10
2007,05,30,13,36,23.90
2007,05,30,13,37,23.90
2007,05,30,13,38,23.90
2007,05,30,13,39,23.80
2007,05,30,13,40,23.80
2007,05,30,13,41,23.80
2007,05,30,13,42,23.80
2007,05,30,13,43,23.90
2007,05,30,13,44,24.00
2007,05,30,13,45,24.10
2007,05,30,13,46,24.10
2007,05,30,13,47,24.10
2007,05,30,13,48,24.20
2007,05,30,13,49,24.20
2007,05,30,13,50,24.30
2007,05,30,13,51,24.40
2007,05,30,13,52,24.40
2007,05,30,13,53,24.40
2007,05,30,13,54,24.40
2007,05,30,13,55,24.60
2007,05,30,13,56,24.60
2007,05,30,13,57,24.70
2007,05,30,13,58,24.80
2007,05,30,13,59,24.80
2007,05,30,14,00,24.90
2007,05,30,14,01,24.90
2007,05,30,14,02,24.90
2007,05,30,14,03,25.00
2007,05,30,14,04,25.10
2007,05,30,14,05,25.00
2007,05,30,14,06,25.00
2007,05,30,14,07,25.00
2007,05,30,14,08,25.00
2007,05,30,14,09,25.10
2007,05,30,14,10,25.10
2007,05,30,14,11,25.10
2007,05,30,14,12,25.20
2007,05,30,14,13,25.10
2007,05,30,14,14,25.00
2007,05,30,14,15,24.90
2007,05,30,14,16,25.00
2007,05,30,14,17,25.00
2007,05,30,14,18,25.10
2007,05,30,14,19,25.20
2007,05,30,14,20,25.30
2007,05,30,14,21,25.40
2007,05,30,14,22,25.50
2007,05,30,14,23,25.60
2007,05,30,14,24,25.60
2007,05,30,14,25,25.60
2007,05,30,14,26,25.70
2007,05,30,14,27,25.70
2007,05,30,14,28,25.70
2007,05,30,14,29,25.70
2007,05,30,14,30,25.70
2007,05,30,14,31,25.80
2007,05,30,14,32,25.90
2007,05,30,14,33,25.90
2007,05,30,14,34,26.00
2007,05,30,14,35,26.00
2007,05,30,14,36,26.00
2007,05,30,14,37,26.00
2007,05,30,14,38,26.10
2007,05,30,14,39,26.10
2007,05,30,14,40,26.10
2007,05,30,14,41,25.90
2007,05,30,14,42,26.00
2007,05,30,14,43,26.00
2007,05,30,14,44,26.20
2007,05,30,14,45,26.20
2007,05,30,14,46,26.30
2007,05,30,14,47,26.30
2007,05,30,14,48,26.30
2007,05,30,14,49,26.30
2007,05,30,14,50,26.30
2007,05,30,14,51,26.30
2007,05,30,14,52,26.30
2007,05,30,14,53,26.20
2007,05,30,14,54,26.20
2007,05,30,14,55,26.20
2007,05,30,14,56,26.10
2007,05,30,14,57,26.10
2007,05,30,14,58,26.10
2007,05,30,14,59,26.10
2007,05,30,15,00,26.20
2007,05,30,15,01,26.20
2007,05,30,15,02,26.30
2007,05,30,15,03,26.40
2007,05,30,15,04,26.30
2007,05,30,15,05,26.30
2007,05,30,15,06,26.30
2007,05,30,15,07,26.30
2007,05,30,15,08,26.30
2007,05,30,15,09,26.40
2007,05,30,15,10,26.40
2007,05,30,15,11,26.60
2007,05,30,15,12,26.60
2007,05,30,15,13,26.70
2007,05,30,15,14,26.70
2007,05,30,15,15,26.70
2007,05,30,15,16,26.70
2007,05,30,15,17,26.60
2007,05,30,15,18,26.60
2007,05,30,15,19,26.60
2007,05,30,15,20,26.60
2007,05,30,15,21,26.60
2007,05,30,15,22,26.60
2007,05,30,15,23,26.60
2007,05,30,15,24,26.60
2007,05,30,15,25,26.70
2007,05,30,15,26,26.70
2007,05,30,15,27,26.80
2007,05,30,15,28,26.80
2007,05,30,15,29,26.90
2007,05,30,15,30,27.00
2007,05,30,15,31,27.00
2007,05,30,15,32,27.00
2007,05,30,15,33,27.10
2007,05,30,15,34,27.10
2007,05,30,15,35,27.10
2007,05,30,15,36,27.10
2007,05,30,15,37,27.00
2007,05,30,15,38,26.90
2007,05,30,15,39,26.80
2007,05,30,15,40,26.80
2007,05,30,15,41,26.80
2007,05,30,15,42,26.80
2007,05,30,15,43,26.80
2007,05,30,15,44,26.90
2007,05,30,15,45,26.80
2007,05,30,15,46,26.80
2007,05,30,15,47,26.80
2007,05,30,15,48,26.80
2007,05,30,15,49,26.80
2007,05,30,15,50,26.90
2007,05,30,15,51,26.90
2007,05,30,15,52,26.90
2007,05,30,15,53,26.90
2007,05,30,15,54,26.90
2007,05,30,15,55,26.80
2007,05,30,15,56,26.80
2007,05,30,15,57,26.70
2007,05,30,15,58,26.70
2007,05,30,15,59,26.80
2007,05,30,16,00,26.80
2007,05,30,16,01,26.80
2007,05,30,16,02,26.80
2007,05,30,16,03,26.80
2007,05,30,16,04,26.90
2007,05,30,16,05,26.90
2007,05,30,16,06,26.90
2007,05,30,16,07,26.90
2007,05,30,16,08,26.90
2007,05,30,16,09,26.90
2007,05,30,16,10,26.90
2007,05,30,16,11,26.80
2007,05,30,16,12,26.90
2007,05,30,16,13,26.90
2007,05,30,16,14,26.90
2007,05,30,16,15,26.90
2007,05,30,16,16,26.90
2007,05,30,16,17,26.90
2007,05,30,16,18,26.90
2007,05,30,16,19,26.90
2007,05,30,16,20,26.90
2007,05,30,16,21,26.90
2007,05,30,16,22,26.90
2007,05,30,16,23,26.90
2007,05,30,16,24,26.90
2007,05,30,16,25,26.90
2007,05,30,16,26,26.90
2007,05,30,16,27,26.90
2007,05,30,16,28,26.90
2007,05,30,16,29,26.80
2007,05,30,16,30,26.70
2007,05,30,16,31,26.80
2007,05,30,16,32,26.80
2007,05,30,16,33,26.80
2007,05,30,16,34,26.80
2007,05,30,16,35,26.80
2007,05,30,16,36,26.80
2007,05,30,16,37,26.70
2007,05,30,16,38,26.70
2007,05,30,16,39,26.70
2007,05,30,16,40,26.80
2007,05,30,16,41,26.70
2007,05,30,16,42,26.70
2007,05,30,16,43,26.70
2007,05,30,16,44,26.70
2007,05,30,16,45,26.80
2007,05,30,16,46,26.80
2007,05,30,16,47,26.80
2007,05,30,16,48,26.80
2007,05,30,16,49,26.70
2007,05,30,16,50,26.70
2007,05,30,16,51,26.60
2007,05,30,16,52,26.60
2007,05,30,16,53,26.60
2007,05,30,16,54,26.70
2007,05,30,16,55,26.70
2007,05,30,16,56,26.70
2007,05,30,16,57,26.70
2007,05,30,16,58,26.80
2007,05,30,16,59,26.80
2007,05,30,17,00,26.80
2007,05,30,17,01,26.80
2007,05,30,17,02,26.80
2007,05,30,17,03,26.80
2007,05,30,17,04,26.70
2007,05,30,17,05,26.70
2007,05,30,17,06,26.60
2007,05,30,17,07,26.60
2007,05,30,17,08,26.60
2007,05,30,17,09,26.60
2007,05,30,17,10,26.60
2007,05,30,17,11,26.70
2007,05,30,17,12,26.60
2007,05,30,17,13,26.50
2007,05,30,17,14,26.40
2007,05,30,17,15,26.30
2007,05,30,17,16,26.20
2007,05,30,17,17,26.20
2007,05,30,17,18,26.20
2007,05,30,17,19,26.20
2007,05,30,17,20,26.10
2007,05,30,17,21,26.10
2007,05,30,17,22,26.10
2007,05,30,17,23,26.10
2007,05,30,17,24,26.10
2007,05,30,17,25,26.20
2007,05,30,17,26,26.20
2007,05,30,17,27,26.20
2007,05,30,17,28,26.10
2007,05,30,17,29,26.00
2007,05,30,17,30,26.00
2007,05,30,17,31,26.00
2007,05,30,17,32,26.00
2007,05,30,17,33,26.00
2007,05,30,17,34,26.00
2007,05,30,17,35,25.90
2007,05,30,17,36,25.90
2007,05,30,17,37,25.90
2007,05,30,17,38,25.90
2007,05,30,17,39,25.90
2007,05,30,17,40,25.80
2007,05,30,17,41,25.80
2007,05,30,17,42,25.80
2007,05,30,17,43,25.70
2007,05,30,17,44,25.60
2007,05,30,17,45,25.50
2007,05,30,17,46,25.50
2007,05,30,17,47,25.40
2007,05,30,17,48,25.40
2007,05,30,17,49,25.40
2007,05,30,17,50,25.40
2007,05,30,17,51,25.40
2007,05,30,17,52,25.40
2007,05,30,17,53,25.40
2007,05,30,17,54,25.40
2007,05,30,17,55,25.40
2007,05,30,17,56,25.30
2007,05,30,17,57,25.30
2007,05,30,17,58,25.30
2007,05,30,17,59,25.30
2007,05,30,18,00,25.20
2007,05,30,18,01,25.20
2007,05,30,18,02,25.20
2007,05,30,18,03,25.20
2007,05,30,18,04,25.20
2007,05,30,18,05,25.20
2007,05,30,18,06,25.20
2007,05,30,18,07,25.20
2007,05,30,18,08,25.30
2007,05,30,18,09,25.30
2007,05,30,18,10,25.30
2007,05,30,18,11,25.30
2007,05,30,18,12,25.30
2007,05,30,18,13,25.30
2007,05,30,18,14,25.30
2007,05,30,18,15,25.40
2007,05,30,18,16,25.30
2007,05,30,18,17,25.30
2007,05,30,18,18,25.40
2007,05,30,18,19,25.40
2007,05,30,18,20,25.30
2007,05,30,18,21,25.40
2007,05,30,18,22,25.40
2007,05,30,18,23,25.40
2007,05,30,18,24,25.40
2007,05,30,18,25,25.50
2007,05,30,18,26,25.50
2007,05,30,18,27,25.40
2007,05,30,18,28,25.40
2007,05,30,18,29,25.40
2007,05,30,18,30,25.40
2007,05,30,18,31,25.40
2007,05,30,18,32,25.30
2007,05,30,18,33,25.20
2007,05,30,18,34,25.20
2007,05,30,18,35,25.10
2007,05,30,18,36,25.10
2007,05,30,18,37,25.00
2007,05,30,18,38,24.90
2007,05,30,18,39,24.90
2007,05,30,18,40,24.80
2007,05,30,18,41,24.80
2007,05,30,18,42,24.80
2007,05,30,18,43,24.60
2007,05,30,18,44,24.40
2007,05,30,18,45,24.10
2007,05,30,18,46,24.00
2007,05,30,18,47,23.90
2007,05,30,18,48,23.60
2007,05,30,18,49,23.50
2007,05,30,18,50,23.50
2007,05,30,18,51,23.40
2007,05,30,18,52,23.40
2007,05,30,18,53,23.40
2007,05,30,18,54,23.50
2007,05,30,18,55,23.40
2007,05,30,18,56,23.40
2007,05,30,18,57,23.30
2007,05,30,18,58,23.30
2007,05,30,18,59,23.30
2007,05,30,19,00,23.20
2007,05,30,19,01,23.20
2007,05,30,19,02,23.20
2007,05,30,19,03,23.20
2007,05,30,19,04,23.20
2007,05,30,19,05,23.20
2007,05,30,19,06,23.20
2007,05,30,19,07,23.20
2007,05,30,19,08,23.20
2007,05,30,19,09,23.20
2007,05,30,19,10,23.20
2007,05,30,19,11,23.30
2007,05,30,19,12,23.30
2007,05,30,19,13,23.30
2007,05,30,19,14,23.40
2007,05,30,19,15,23.40
2007,05,30,19,16,23.40
2007,05,30,19,17,23.40
2007,05,30,19,18,23.40
2007,05,30,19,19,23.40
2007,05,30,19,20,23.40
2007,05,30,19,21,23.40
2007,05,30,19,22,23.40
2007,05,30,19,23,23.50
2007,05,30,19,24,23.50
2007,05,30,19,25,23.60
2007,05,30,19,26,23.60
2007,05,30,19,27,23.60
2007,05,30,19,28,23.70
2007,05,30,19,29,23.70
2007,05,30,19,30,23.70
2007,05,30,19,31,23.70
2007,05,30,19,32,23.70
2007,05,30,19,33,23.60
2007,05,30,19,34,23.60
2007,05,30,19,35,23.50
2007,05,30,19,36,23.40
2007,05,30,19,37,23.30
2007,05,30,19,38,23.30
2007,05,30,19,39,23.20
2007,05,30,19,40,23.20
2007,05,30,19,41,23.10
2007,05,30,19,42,23.10
2007,05,30,19,43,23.10
2007,05,30,19,44,23.00
2007,05,30,19,45,22.90
2007,05,30,19,46,22.80
2007,05,30,19,47,22.70
2007,05,30,19,48,22.60
2007,05,30,19,49,22.50
2007,05,30,19,50,22.30
2007,05,30,19,51,22.30
2007,05,30,19,52,22.10
2007,05,30,19,53,22.10
2007,05,30,19,54,22.00
2007,05,30,19,55,21.90
2007,05,30,19,56,21.90
2007,05,30,19,57,21.80
2007,05,30,19,58,21.80
2007,05,30,19,59,21.80
2007,05,30,20,00,21.70
2007,05,30,20,01,21.70
2007,05,30,20,02,21.60
2007,05,30,20,03,21.60
2007,05,30,20,04,21.60
2007,05,30,20,05,21.50
2007,05,30,20,06,21.50
2007,05,30,20,07,21.40
2007,05,30,20,08,21.40
2007,05,30,20,09,21.40
2007,05,30,20,10,21.40
2007,05,30,20,11,21.50
2007,05,30,20,12,21.50
2007,05,30,20,13,21.50
2007,05,30,20,14,21.50
2007,05,30,20,15,21.60
2007,05,30,20,16,21.60
2007,05,30,20,17,21.60
2007,05,30,20,18,21.60
2007,05,30,20,19,21.60
2007,05,30,20,20,21.50
2007,05,30,20,21,21.50
2007,05,30,20,22,21.50
2007,05,30,20,23,21.40
2007,05,30,20,24,21.40
2007,05,30,20,25,21.40
2007,05,30,20,26,21.40
2007,05,30,20,27,21.40
2007,05,30,20,28,21.30
2007,05,30,20,29,21.30
2007,05,30,20,30,21.30
2007,05,30,20,31,21.20
2007,05,30,20,32,21.20
2007,05,30,20,33,21.10
2007,05,30,20,34,21.10
2007,05,30,20,35,21.00
2007,05,30,20,36,20.90
2007,05,30,20,37,20.80
2007,05,30,20,38,20.60
2007,05,30,20,39,20.50
2007,05,30,20,40,20.40
2007,05,30,20,41,20.40
2007,05,30,20,42,20.30
2007,05,30,20,43,20.20
2007,05,30,20,44,20.20
2007,05,30,20,45,20.10
2007,05,30,20,46,20.10
2007,05,30,20,47,20.10
2007,05,30,20,48,20.00
2007,05,30,20,49,20.00
2007,05,30,20,50,19.90
2007,05,30,20,51,19.90
2007,05,30,20,52,19.80
2007,05,30,20,53,19.80
2007,05,30,20,54,19.80
2007,05,30,20,55,19.70
2007,05,30,20,56,19.70
2007,05,30,20,57,19.70
2007,05,30,20,58,19.70
2007,05,30,20,59,19.70
2007,05,30,21,00,19.60
2007,05,30,21,01,19.60
2007,05,30,21,02,19.60
2007,05,30,21,03,19.60
2007,05,30,21,04,19.50
2007,05,30,21,05,19.50
2007,05,30,21,06,19.50
2007,05,30,21,07,19.40
2007,05,30,21,08,19.40
2007,05,30,21,09,19.40
2007,05,30,21,10,19.30
2007,05,30,21,11,19.30
2007,05,30,21,12,19.30
2007,05,30,21,13,19.30
2007,05,30,21,14,19.20
2007,05,30,21,15,19.20
2007,05,30,21,16,19.20
2007,05,30,21,17,19.10
2007,05,30,21,18,19.10
2007,05,30,21,19,19.10
2007,05,30,21,20,19.00
2007,05,30,21,21,18.90
2007,05,30,21,22,18.90
2007,05,30,21,23,18.90
2007,05,30,21,24,18.80
2007,05,30,21,25,18.70
2007,05,30,21,26,18.70
2007,05,30,21,27,18.70
2007,05,30,21,28,18.70
2007,05,30,21,29,18.70
2007,05,30,21,30,18.70
2007,05,30,21,31,18.70
2007,05,30,21,32,18.70
2007,05,30,21,33,18.70
2007,05,30,21,34,18.70
